Date String (YYYY-MM-DD hh:mm:ss) UTC,Instrument flags,absolute air pressure of the measurement (hPa),sample flow rate (lpm),inlet stack bypass flow (lpm),air temperature of the measurement (°C),ambient temperature measured by the external sensor (°C),aerosol sample conditioner tube jacket temperature (°C),OPC LED temperature (°C),internal box temperature (°C),relative humidity of the measurement (%),span deviation,mass concentration of particles derived from Lorenz-Mie calculation of OPC scattering (μg/m³),mass concentration of particles derived from Lorenz-Mie calculation of OPC scattering (μg/m³),mass concentration of particles derived from Lorenz-Mie calculation of OPC scattering (μg/m³)
DateTimeUTC,F1_M11,P_M11,Q1_M11,Q2_M11,T1_M11,T2_M11,T3_M11,T4_M11,T5_M11,U1_M11,ZSPAN_M11,X0_M11,X2_M11,X1_M11
2024-01-09 12:00:00,SystemResetWarning,0820.8,5.00,000.00,018.9,018.6,000.0,027.2,020.1,6.3,0000.0,0003.35,0002.26,0001.96
2024-01-09 12:01:00,SystemResetWarning,0820.8,5.00,000.00,018.9,018.5,000.0,027.2,020.1,6.3,0000.0,0003.32,0002.24,0001.96
2024-01-09 12:02:00,SystemResetWarning,0820.8,5.01,000.00,018.9,018.4,000.0,027.2,020.0,6.3,0000.0,0003.31,0002.24,0001.96
2024-01-09 12:03:00,SystemResetWarning,0820.8,5.00,000.00,018.8,018.3,000.0,027.2,020.0,6.3,0000.0,0003.34,0002.27,0001.97
2024-01-09 12:04:00,SystemResetWarning,0820.7,5.00,000.00,018.8,018.2,000.0,027.2,020.0,6.3,0000.0,0003.09,0002.31,0001.99
2024-01-09 12:05:00,SystemResetWarning,0820.8,5.00,000.00,018.8,018.1,000.0,027.2,020.0,6.3,0000.0,0003.20,0002.37,0002.01
2024-01-09 12:06:00,SystemResetWarning,0820.7,4.99,000.00,018.8,018.0,000.0,027.2,020.0,6.2,0000.0,0003.29,0002.42,0002.02
2024-01-09 12:07:00,SystemResetWarning,0820.6,5.00,000.00,018.8,018.0,000.0,027.2,020.0,6.2,0000.0,0003.21,0002.41,0002.03
2024-01-09 12:08:00,SystemResetWarning,0820.7,5.01,000.00,018.8,017.9,000.0,027.2,020.0,6.2,0000.0,0003.23,0002.42,0002.05
2024-01-09 12:09:00,SystemResetWarning,0820.7,5.00,000.00,018.8,017.9,000.0,027.2,020.0,6.2,0000.0,0003.36,0002.49,0002.07
2024-01-09 12:10:00,SystemResetWarning,0820.6,5.00,000.00,018.7,017.8,000.0,027.2,020.0,6.2,0000.0,0003.50,0002.55,0002.08
2024-01-09 12:11:00,SystemResetWarning,0820.6,5.00,000.00,018.7,017.8,000.0,027.2,020.0,6.2,0000.0,0004.23,0002.60,0002.11
2024-01-09 12:12:00,SystemResetWarning,0820.6,4.99,000.00,018.7,017.8,000.0,027.2,020.0,6.2,0000.0,0004.34,0002.64,0002.13
2024-01-09 12:13:00,SystemResetWarning,0820.6,5.01,000.00,018.8,018.1,000.0,027.2,020.4,6.2,0000.0,0004.47,0002.67,0002.15
2024-01-09 12:14:00,SystemResetWarning,0820.6,5.01,000.00,018.9,018.8,000.0,027.2,020.7,6.2,0000.0,0004.55,0002.70,0002.17
2024-01-09 12:15:00,SystemResetWarning,0820.6,4.99,000.00,019.0,019.1,000.0,027.2,020.6,6.2,0000.0,0004.58,0002.72,0002.18
2024-01-09 12:16:00,SystemResetWarning,0820.6,4.99,000.00,019.0,019.0,000.0,027.2,020.4,6.2,0000.0,0004.89,0002.74,0002.20
2024-01-09 12:17:00,SystemResetWarning,0820.5,5.00,000.00,019.0,018.8,000.0,027.2,020.2,6.2,0000.0,0005.20,0002.76,0002.22
2024-01-09 12:18:00,SystemResetWarning,0820.7,5.02,000.00,019.0,018.7,000.0,027.2,020.1,6.2,0000.0,0005.25,0002.78,0002.24
2024-01-09 12:19:00,SystemResetWarning,0820.6,5.00,000.00,018.9,018.5,000.0,027.2,020.0,6.2,0000.0,0005.24,0002.78,0002.24
2024-01-09 12:20:00,SystemResetWarning,0820.6,4.98,000.00,018.9,018.4,000.0,027.2,020.0,6.3,0000.0,0005.26,0002.77,0002.24
2024-01-09 12:21:00,SystemResetWarning,0820.6,5.00,000.00,018.8,018.3,000.0,027.2,020.0,6.3,0000.0,0005.23,0002.71,0002.22
2024-01-09 12:22:00,SystemResetWarning,0820.6,5.01,000.00,018.8,018.3,000.0,027.2,020.0,6.3,0000.0,0004.58,0002.68,0002.21
2024-01-09 12:23:00,SystemResetWarning,0820.6,5.01,000.00,018.8,018.2,000.0,027.2,020.0,6.3,0000.0,0004.52,0002.68,0002.19
2024-01-09 12:24:00,SystemResetWarning,0820.5,5.00,000.00,018.8,018.1,000.0,027.3,020.0,6.2,0000.0,0004.52,0002.67,0002.17
2024-01-09 12:25:00,SystemResetWarning,0820.8,5.00,000.00,018.8,018.0,000.0,027.3,020.0,6.2,0000.0,0005.28,0002.70,0002.16
2024-01-09 12:26:00,SystemResetWarning,0820.5,5.00,000.00,018.8,018.0,000.0,027.2,020.0,6.2,0000.0,0005.46,0002.71,0002.15
2024-01-09 12:27:00,SystemResetWarning,0820.8,5.00,000.00,018.8,017.9,000.0,027.2,020.0,6.2,0000.0,0005.45,0002.76,0002.16
2024-01-09 12:28:00,SystemResetWarning,0820.9,5.00,000.00,018.7,017.9,000.0,027.2,020.0,6.2,0000.0,0005.11,0002.73,0002.14
2024-01-09 12:29:00,SystemResetWarning,0820.8,5.01,000.00,018.7,017.9,000.0,027.2,020.0,6.2,0000.0,0005.18,0002.75,0002.13
2024-01-09 12:30:00,SystemResetWarning,0820.9,5.01,000.00,018.7,017.9,000.0,027.2,020.0,6.2,0000.0,0005.31,0002.80,0002.14
2024-01-09 12:31:00,SystemResetWarning,0821.0,5.00,000.00,018.8,018.1,000.0,027.2,020.3,6.2,0000.0,0005.29,0002.79,0002.15
2024-01-09 12:32:00,SystemResetWarning,0820.8,5.01,000.00,018.9,018.9,000.0,027.2,020.7,6.2,0000.0,0005.13,0002.76,0002.16
2024-01-09 12:33:00,SystemResetWarning,0820.4,4.99,000.00,019.0,019.2,000.0,027.2,020.7,6.1,0000.0,0005.06,0002.75,0002.17
2024-01-09 12:34:00,SystemResetWarning,0820.8,4.99,000.00,019.0,019.0,000.0,027.2,020.4,6.1,0000.0,0005.00,0002.73,0002.17
2024-01-09 12:35:00,SystemResetWarning,0820.6,5.01,000.00,019.0,018.8,000.0,027.2,020.2,6.1,0000.0,0004.84,0002.68,0002.17
2024-01-09 12:36:00,SystemResetWarning,0820.3,5.01,000.00,019.0,018.7,000.0,027.2,020.1,6.1,0000.0,0003.88,0002.59,0002.15
2024-01-09 12:37:00,SystemResetWarning,0820.3,4.99,000.00,018.9,018.6,000.0,027.2,020.1,6.1,0000.0,0003.72,0002.56,0002.14
2024-01-09 12:38:00,SystemResetWarning,0820.2,4.99,000.00,018.9,018.5,000.0,027.2,020.0,6.1,0000.0,0003.35,0002.45,0002.12
2024-01-09 12:39:00,SystemResetWarning,0820.3,5.01,000.00,018.9,018.4,000.0,027.2,020.0,6.1,0000.0,0003.20,0002.40,0002.10
2024-01-09 12:40:00,SystemResetWarning,0820.2,5.01,000.00,018.8,018.3,000.0,027.2,020.0,6.1,0000.0,0003.07,0002.32,0002.07
2024-01-09 12:41:00,SystemResetWarning,0820.2,5.00,000.00,018.8,018.2,000.0,027.2,020.0,6.2,0000.0,0002.97,0002.27,0002.03
2024-01-09 12:42:00,SystemResetWarning,0820.2,5.00,000.00,018.8,018.1,000.0,027.2,020.0,6.2,0000.0,0002.83,0002.21,0002.01
2024-01-09 12:43:00,SystemResetWarning,0820.2,5.01,000.00,018.8,018.1,000.0,027.3,020.0,6.2,0000.0,0002.81,0002.18,0001.98
2024-01-09 12:44:00,SystemResetWarning,0820.1,5.00,000.00,018.8,018.1,000.0,027.3,020.0,6.2,0000.0,0002.86,0002.16,0001.95
2024-01-09 12:45:00,SystemResetWarning,0820.1,5.00,000.00,018.8,018.0,000.0,027.3,020.0,6.3,0000.0,0002.86,0002.14,0001.92
2024-01-09 12:46:00,SystemResetWarning,0820.2,5.00,000.00,018.8,018.0,000.0,027.3,020.0,6.3,0000.0,0002.95,0002.14,0001.89
2024-01-09 12:47:00,SystemResetWarning,0820.2,4.99,000.00,018.8,018.0,000.0,027.3,020.0,6.3,0000.0,0003.06,0002.13,0001.87
2024-01-09 12:48:00,SystemResetWarning,0820.2,5.00,000.00,018.8,018.0,000.0,027.3,020.1,6.3,0000.0,0003.70,0002.10,0001.83
2024-01-09 12:49:00,SystemResetWarning,0820.3,5.01,000.00,018.9,018.4,000.0,027.2,020.5,6.3,0000.0,0003.65,0002.06,0001.79
2024-01-09 12:50:00,SystemResetWarning,0820.3,5.00,000.00,019.0,019.1,000.0,027.3,020.8,6.3,0000.0,0003.65,0002.04,0001.75
2024-01-09 12:51:00,SystemResetWarning,0820.3,4.99,000.00,019.1,019.1,000.0,027.3,020.6,6.2,0000.0,0003.65,0002.02,0001.73
2024-01-09 12:52:00,SystemResetWarning,0820.3,4.99,000.00,019.0,019.0,000.0,027.3,020.3,6.2,0000.0,0003.55,0001.97,0001.71
2024-01-09 12:53:00,SystemResetWarning,0820.3,5.00,000.00,019.0,018.8,000.0,027.3,020.2,6.3,0000.0,0003.58,0001.96,0001.69
2024-01-09 12:54:00,SystemResetWarning,0820.3,5.01,000.00,019.0,018.7,000.0,027.2,020.1,6.3,0000.0,0003.57,0001.96,0001.67
2024-01-09 12:55:00,SystemResetWarning,0820.2,5.00,000.00,018.9,018.5,000.0,027.2,020.0,6.3,0000.0,0003.46,0001.93,0001.65
2024-01-09 12:56:00,SystemResetWarning,0820.2,5.00,000.00,018.9,018.4,000.0,027.2,020.0,6.3,0000.0,0003.47,0001.94,0001.64
2024-01-09 12:57:00,SystemResetWarning,0820.2,4.99,000.00,018.9,018.3,000.0,027.2,020.0,6.3,0000.0,0003.43,0001.93,0001.63
2024-01-09 12:58:00,SystemResetWarning,0820.2,4.99,000.00,018.9,018.3,000.0,027.3,020.0,6.3,0000.0,0003.48,0001.96,0001.63
2024-01-09 12:59:00,SystemResetWarning,0820.2,5.00,000.00,018.8,018.2,000.0,027.3,020.0,6.4,0000.0,0002.76,0001.94,0001.64
